Time,TemperatureF,DewpointF,PressureIn,WindDirection,WindDirectionDegrees,WindSpeedMPH,WindSpeedGustMPH,Humidity,HourlyPrecipIn,Conditions,Clouds,dailyrainin,SoftwareType,DateUTC
2013-07-20 00:00:00,81.0,75.0,29.98,ESE,110,7.0,7.0,80,-99.99,,,-99.99,,2013-07-20 05:00:00,
2013-07-20 00:32:00,81.0,75.0,29.98,ESE,110,7.0,7.0,80,-99.99,,,-99.99,,2013-07-20 05:32:00,
2013-07-20 00:52:00,81.0,75.0,29.98,ESE,110,7.0,7.0,80,-99.99,,,-99.99,,2013-07-20 05:52:00,
2013-07-20 01:00:00,81.0,76.0,29.97,ESE,110,10.0,12.0,83,-99.99,,,-99.99,,2013-07-20 06:00:00,
2013-07-20 01:32:00,81.0,76.0,29.97,ESE,110,10.0,12.0,83,-99.99,,,-99.99,,2013-07-20 06:32:00,
2013-07-20 01:43:00,81.0,76.0,29.97,ESE,110,10.0,12.0,83,-99.99,,,-99.99,,2013-07-20 06:43:00,
2013-07-20 01:52:00,81.0,76.0,29.97,ESE,110,10.0,12.0,83,-99.99,,,-99.99,,2013-07-20 06:52:00,
2013-07-20 02:00:00,81.0,75.0,29.96,ESE,120,12.0,14.0,81,-99.99,,,-99.99,,2013-07-20 07:00:00,
2013-07-20 02:33:00,81.0,75.0,29.96,ESE,120,12.0,14.0,81,-99.99,,,-99.99,,2013-07-20 07:33:00,
2013-07-20 02:44:00,81.0,75.0,29.96,ESE,120,12.0,14.0,81,-99.99,,,-99.99,,2013-07-20 07:44:00,
2013-07-20 02:53:00,81.0,75.0,29.96,ESE,120,12.0,14.0,81,-99.99,,,-99.99,,2013-07-20 07:53:00,
2013-07-20 03:00:00,81.0,75.0,29.96,SSE,150,10.0,12.0,81,-99.99,,,-99.99,,2013-07-20 08:00:00,
2013-07-20 03:32:00,81.0,75.0,29.96,SSE,150,10.0,12.0,81,-99.99,,,-99.99,,2013-07-20 08:32:00,
2013-07-20 03:44:00,81.0,75.0,29.96,SSE,150,10.0,12.0,81,-99.99,,,-99.99,,2013-07-20 08:44:00,
2013-07-20 03:52:00,81.0,75.0,29.96,SSE,150,10.0,12.0,81,-99.99,,,-99.99,,2013-07-20 08:52:00,
2013-07-20 04:00:00,81.0,76.0,29.95,SSE,150,8.0,10.0,84,-99.99,,,-99.99,,2013-07-20 09:00:00,
2013-07-20 04:33:00,81.0,76.0,29.95,SSE,150,8.0,10.0,84,-99.99,,,-99.99,,2013-07-20 09:33:00,
2013-07-20 04:43:00,81.0,76.0,29.95,SSE,150,8.0,10.0,84,-99.99,,,-99.99,,2013-07-20 09:43:00,
2013-07-20 04:53:00,81.0,76.0,29.95,SSE,150,8.0,10.0,84,-99.99,,,-99.99,,2013-07-20 09:53:00,
2013-07-20 05:00:00,81.0,74.0,29.95,South,170,7.0,7.0,80,-99.99,,,-99.99,,2013-07-20 10:00:00,
2013-07-20 05:21:00,81.0,74.0,29.95,South,170,7.0,7.0,80,-99.99,,,-99.99,,2013-07-20 10:21:00,
2013-07-20 05:32:00,81.0,74.0,29.95,South,170,7.0,7.0,80,-99.99,,,-99.99,,2013-07-20 10:32:00,
2013-07-20 05:42:00,81.0,74.0,29.95,South,170,7.0,7.0,80,-99.99,,,-99.99,,2013-07-20 10:42:00,
2013-07-20 05:52:00,81.0,74.0,29.95,South,170,7.0,7.0,80,-99.99,,,-99.99,,2013-07-20 10:52:00,
2013-07-20 06:00:00,81.0,75.0,29.96,SSE,150,6.0,7.0,83,-99.99,,,-99.99,,2013-07-20 11:00:00,
2013-07-20 06:32:00,81.0,75.0,29.96,SSE,150,6.0,7.0,83,-99.99,,,-99.99,,2013-07-20 11:32:00,
2013-07-20 06:43:00,81.0,75.0,29.96,SSE,150,6.0,7.0,83,-99.99,,,-99.99,,2013-07-20 11:43:00,
2013-07-20 06:52:00,81.0,75.0,29.96,SSE,150,6.0,7.0,83,-99.99,,,-99.99,,2013-07-20 11:52:00,
2013-07-20 07:00:00,80.0,76.0,29.96,WNW,290,2.0,2.0,89,-99.99,,,-99.99,,2013-07-20 12:00:00,
2013-07-20 07:32:00,80.0,76.0,29.96,WNW,290,2.0,2.0,89,-99.99,,,-99.99,,2013-07-20 12:32:00,
2013-07-20 07:52:00,80.0,76.0,29.96,WNW,290,2.0,2.0,89,-99.99,,,-99.99,,2013-07-20 12:52:00,
2013-07-20 08:00:00,81.0,76.0,29.96,North,0,0.0,0.0,84,-99.99,,,-99.99,,2013-07-20 13:00:00,
2013-07-20 08:32:00,81.0,76.0,29.96,North,0,0.0,0.0,84,-99.99,,,-99.99,,2013-07-20 13:32:00,
2013-07-20 08:43:00,81.0,76.0,29.96,North,0,0.0,0.0,84,-99.99,,,-99.99,,2013-07-20 13:43:00,
2013-07-20 08:52:00,81.0,76.0,29.96,North,0,0.0,0.0,84,-99.99,,,-99.99,,2013-07-20 13:52:00,
2013-07-20 09:00:00,81.0,77.0,29.98,ESE,110,3.0,5.0,86,-99.99,,,-99.99,,2013-07-20 14:00:00,
2013-07-20 09:32:00,81.0,77.0,29.98,ESE,110,3.0,5.0,86,-99.99,,,-99.99,,2013-07-20 14:32:00,
2013-07-20 09:43:00,81.0,77.0,29.98,ESE,110,3.0,5.0,86,-99.99,,,-99.99,,2013-07-20 14:43:00,
2013-07-20 09:52:00,81.0,77.0,29.98,ESE,110,3.0,5.0,86,-99.99,,,-99.99,,2013-07-20 14:52:00,
2013-07-20 11:00:00,83.0,76.0,29.99,SSW,210,6.0,9.0,81,-99.99,,,-99.99,,2013-07-20 16:00:00,
2013-07-20 11:22:00,83.0,76.0,29.99,SSW,210,6.0,9.0,81,-99.99,,,-99.99,,2013-07-20 16:22:00,
2013-07-20 11:32:00,83.0,76.0,29.99,SSW,210,6.0,9.0,81,-99.99,,,-99.99,,2013-07-20 16:32:00,
2013-07-20 11:43:00,83.0,76.0,29.99,SSW,210,6.0,9.0,81,-99.99,,,-99.99,,2013-07-20 16:43:00,
2013-07-20 11:52:00,83.0,76.0,29.99,SSW,210,6.0,9.0,81,-99.99,,,-99.99,,2013-07-20 16:52:00,
2013-07-20 12:00:00,82.0,76.0,29.99,SW,220,9.0,12.0,80,-99.99,,,-99.99,,2013-07-20 17:00:00,
2013-07-20 12:22:00,82.0,76.0,29.99,SW,220,9.0,12.0,80,-99.99,,,-99.99,,2013-07-20 17:22:00,
2013-07-20 12:32:00,82.0,76.0,29.99,SW,220,9.0,12.0,80,-99.99,,,-99.99,,2013-07-20 17:32:00,
2013-07-20 12:43:00,82.0,76.0,29.99,SW,220,9.0,12.0,80,-99.99,,,-99.99,,2013-07-20 17:43:00,
2013-07-20 12:53:00,82.0,76.0,29.99,SW,220,9.0,12.0,80,-99.99,,,-99.99,,2013-07-20 17:53:00,
2013-07-20 13:00:00,83.0,76.0,29.99,SW,220,12.0,14.0,78,-99.99,,,-99.99,,2013-07-20 18:00:00,
2013-07-20 13:22:00,83.0,76.0,29.99,SW,220,12.0,14.0,78,-99.99,,,-99.99,,2013-07-20 18:22:00,
2013-07-20 13:32:00,83.0,76.0,29.99,SW,220,12.0,14.0,78,-99.99,,,-99.99,,2013-07-20 18:32:00,
2013-07-20 13:43:00,83.0,76.0,29.99,SW,220,12.0,14.0,78,-99.99,,,-99.99,,2013-07-20 18:43:00,
2013-07-20 13:52:00,83.0,76.0,29.99,SW,220,12.0,14.0,78,-99.99,,,-99.99,,2013-07-20 18:52:00,
2013-07-20 14:00:00,84.0,76.0,29.98,SW,220,8.0,12.0,75,-99.99,,,-99.99,,2013-07-20 19:00:00,
2013-07-20 14:32:00,84.0,76.0,29.98,SW,220,8.0,12.0,75,-99.99,,,-99.99,,2013-07-20 19:32:00,
2013-07-20 14:43:00,84.0,76.0,29.98,SW,220,8.0,12.0,75,-99.99,,,-99.99,,2013-07-20 19:43:00,
2013-07-20 14:52:00,84.0,76.0,29.98,SW,220,8.0,12.0,75,-99.99,,,-99.99,,2013-07-20 19:52:00,
2013-07-20 15:00:00,83.0,75.0,29.96,SW,220,10.0,13.0,74,-99.99,,,-99.99,,2013-07-20 20:00:00,
2013-07-20 15:32:00,83.0,75.0,29.96,SW,220,10.0,13.0,74,-99.99,,,-99.99,,2013-07-20 20:32:00,
2013-07-20 15:43:00,83.0,75.0,29.96,SW,220,10.0,13.0,74,-99.99,,,-99.99,,2013-07-20 20:43:00,
2013-07-20 16:00:00,84.0,75.0,29.95,SSW,210,10.0,14.0,75,-99.99,,,-99.99,,2013-07-20 21:00:00,
2013-07-20 16:32:00,84.0,75.0,29.95,SSW,210,10.0,14.0,75,-99.99,,,-99.99,,2013-07-20 21:32:00,
2013-07-20 16:52:00,84.0,75.0,29.95,SSW,210,10.0,14.0,75,-99.99,,,-99.99,,2013-07-20 21:52:00,
2013-07-20 17:00:00,84.0,74.0,29.93,SW,220,12.0,15.0,72,-99.99,,,-99.99,,2013-07-20 22:00:00,
2013-07-20 17:32:00,84.0,74.0,29.93,SW,220,12.0,15.0,72,-99.99,,,-99.99,,2013-07-20 22:32:00,
2013-07-20 17:42:00,84.0,74.0,29.93,SW,220,12.0,15.0,72,-99.99,,,-99.99,,2013-07-20 22:42:00,
2013-07-20 17:52:00,84.0,74.0,29.93,SW,220,12.0,15.0,72,-99.99,,,-99.99,,2013-07-20 22:52:00,
2013-07-20 18:00:00,84.0,75.0,29.94,SW,220,12.0,15.0,75,-99.99,,,-99.99,,2013-07-20 23:00:00,
2013-07-20 18:42:00,84.0,75.0,29.94,SW,220,12.0,15.0,75,-99.99,,,-99.99,,2013-07-20 23:42:00,
2013-07-20 18:53:00,84.0,75.0,29.94,SW,220,12.0,15.0,75,-99.99,,,-99.99,,2013-07-20 23:53:00,
2013-07-20 20:00:00,83.0,76.0,29.96,SW,230,8.0,15.0,78,-99.99,,,-99.99,,2013-07-21 01:00:00,
2013-07-20 20:32:00,83.0,76.0,29.96,SW,230,8.0,15.0,78,-99.99,,,-99.99,,2013-07-21 01:32:00,
2013-07-20 20:42:00,-999.0,-99.9,-100.00,SW,230,8.0,15.0,-999,-99.99,,,-99.99,,2013-07-21 01:42:00,
2013-07-20 20:52:00,83.0,76.0,29.96,SW,230,8.0,15.0,78,-99.99,,,-99.99,,2013-07-21 01:52:00,
2013-07-20 21:00:00,83.0,75.0,29.97,SW,230,12.0,15.0,77,-99.99,,,-99.99,,2013-07-21 02:00:00,
2013-07-20 21:32:00,83.0,75.0,29.97,SW,230,12.0,15.0,77,-99.99,,,-99.99,,2013-07-21 02:32:00,
2013-07-20 21:42:00,83.0,75.0,29.97,SW,230,12.0,15.0,77,-99.99,,,-99.99,,2013-07-21 02:42:00,
2013-07-20 21:52:00,83.0,75.0,29.97,SW,230,12.0,15.0,77,-99.99,,,-99.99,,2013-07-21 02:52:00,
2013-07-20 23:00:00,83.0,75.0,30.00,SW,220,14.0,17.0,77,-99.99,,,-99.99,,2013-07-21 04:00:00,
2013-07-20 23:32:00,83.0,75.0,30.00,SW,220,14.0,17.0,77,-99.99,,,-99.99,,2013-07-21 04:32:00,
2013-07-20 23:43:00,83.0,75.0,30.00,SW,220,14.0,17.0,77,-99.99,,,-99.99,,2013-07-21 04:43:00,
2013-07-20 23:53:00,83.0,75.0,30.00,SW,220,14.0,17.0,77,-99.99,,,-99.99,,2013-07-21 04:53:00,